Kirkville, IA

8:53 AM CDT on August 27, 2016 (GMT -0500)
Ottumwa Industrial

Weather History for KOTM - February, 2012

Change the Weather History Date:

Friday, February 17, 2012

  Actual Average Record
Temperature  
Mean Temperature 39 °F 28 °F  
Max Temperature 51 °F 37 °F 68 °F (2011)
Min Temperature 27 °F 18 °F -20 °F (1958)
Degree Days  
Heating Degree Days 26 37  
Month to date heating degree days 593 675  
Since 1 July heating degree days 3872 4497  
Cooling Degree Days 0 0  
Month to date cooling degree days 0 0  
Year to date cooling degree days 0 0  
Moisture  
Dew Point 27 °F    
Average Humidity 60    
Maximum Humidity 81    
Minimum Humidity 39    
Precipitation  
Precipitation 0.00 in 0.05 in 0.80 in (2008)
Month to date precipitation 0.51 0.63  
Year to date precipitation 0.76 1.53  
Sea Level Pressure  
Sea Level Pressure 30.11 in    
Wind  
Wind Speed 11 mph (WSW)    
Max Wind Speed 25 mph    
Max Gust Speed 33 mph    
Visibility 10 miles    
Events      
T = Trace of Precipitation, MM = Missing Value Source: NWS Daily Summary

Daily Weather History Graph

Daily Weather History Graph

Search for Another Location

Airport or City:

Trip Planner

Search our weather history database for the weather conditions in past years. The results will help you decide how hot, cold, wet, or windy it might be!

Date:

Astronomy

Feb. 17, 2012 Rise Set
Actual Time 7:02 AM CST 5:45 PM CST
Civil Twilight 6:34 AM CST 6:14 PM CST
Nautical Twilight 6:01 AM CST 6:46 PM CST
Astronomical Twilight 5:30 AM CST 7:18 PM CST
Moon 3:55 AM CST (2/17) 1:37 PM CST (2/17)
Length of Visible Light 11h 39m
Length of Day
10h 43m
Waning Crescent, 19% of the Moon is Illuminated
Feb 17
Waning Crescent
Feb 21
New
Feb 29
First Quarter
Mar 8
Full
Mar 14
Last Quarter

Hourly Weather History & Observations

Time (CST) Temp. Windchill Dew Point Humidity Pressure Visibility Wind Dir Wind Speed Gust Speed Precip Events Conditions
12:53 AM 27.0 °F 21.6 °F 21.9 °F 81% 30.18 in 10.0 mi South 4.6 mph - N/A   Clear
1:53 AM 28.9 °F 19.8 °F 23.0 °F 78% 30.16 in 10.0 mi South 10.4 mph - N/A   Scattered Clouds
2:53 AM 30.9 °F 23.5 °F 25.0 °F 79% 30.14 in 10.0 mi South 8.1 mph - N/A   Overcast
3:53 AM 32.0 °F 24.8 °F 25.0 °F 75% 30.12 in 10.0 mi South 8.1 mph - N/A   Overcast
4:53 AM 32.0 °F 24.8 °F 25.0 °F 75% 30.12 in 10.0 mi South 8.1 mph - N/A   Overcast
5:53 AM 30.9 °F 22.8 °F 24.1 °F 76% 30.10 in 10.0 mi South 9.2 mph - N/A   Mostly Cloudy
6:53 AM 32.0 °F 23.6 °F 25.0 °F 75% 30.09 in 10.0 mi South 10.4 mph - N/A   Scattered Clouds
7:53 AM 34.0 °F 26.0 °F 26.1 °F 73% 30.09 in 10.0 mi South 10.4 mph - N/A   Overcast
8:53 AM 39.9 °F 33.4 °F 28.9 °F 65% 30.09 in 10.0 mi SSW 10.4 mph - N/A   Overcast
9:53 AM 44.1 °F 37.1 °F 30.9 °F 60% 30.08 in 10.0 mi SW 15.0 mph - N/A   Clear
10:53 AM 46.9 °F - 32.0 °F 56% 30.09 in 10.0 mi WSW 20.7 mph 27.6 mph N/A   Clear
11:53 AM 48.9 °F - 33.1 °F 54% 30.09 in 10.0 mi WSW 17.3 mph 25.3 mph N/A   Clear
12:53 PM 50.0 °F - 32.0 °F 50% 30.07 in 10.0 mi WSW 17.3 mph - N/A   Clear
1:53 PM 51.1 °F - 30.0 °F 44% 30.06 in 10.0 mi WNW 12.7 mph - N/A   Clear
2:53 PM 50.0 °F - 26.1 °F 39% 30.06 in 10.0 mi WNW 11.5 mph - N/A   Clear
3:53 PM 48.9 °F - 27.0 °F 43% 30.06 in 10.0 mi WNW 10.4 mph - N/A   Clear
4:53 PM 46.9 °F - 28.0 °F 48% 30.08 in 10.0 mi WNW 10.4 mph - N/A   Clear
5:53 PM 39.0 °F 34.0 °F 27.0 °F 62% 30.10 in 10.0 mi NW 6.9 mph - N/A   Clear
6:53 PM 37.0 °F 31.6 °F 26.1 °F 65% 30.12 in 10.0 mi WNW 6.9 mph - N/A   Clear
7:53 PM 37.0 °F 29.3 °F 26.1 °F 65% 30.13 in 10.0 mi NW 11.5 mph - N/A   Clear
8:53 PM 35.1 °F 26.9 °F 26.1 °F 70% 30.15 in 10.0 mi NW 11.5 mph - N/A   Clear
9:53 PM 32.0 °F 24.2 °F 26.1 °F 79% 30.17 in 10.0 mi NW 9.2 mph - N/A   Clear
10:53 PM 30.9 °F 21.7 °F 25.0 °F 79% 30.18 in 10.0 mi NW 11.5 mph - N/A   Clear
11:53 PM 28.9 °F 19.8 °F 24.1 °F 82% 30.19 in 10.0 mi NW 10.4 mph - N/A   Clear